User: anonymous   Login
Location: Clatteringshaws Loch
(55.0508°N, 4.2860°W)
Time: 03:24:45
(UTC+00:00)
Language:

Sapphire - Orbit

View from above orbital plane
View from above orbital plane
View from above satellite
View from above satellite

Ground track
Ground track

The orbit data is extracted from the following two-line orbital elements,

1 26932U 01043D   14353.91739975  .00000234  00000-0  12242-3 0  7852
2 26932 067.0576 280.6315 0008872 277.2526 082.7567 14.30080894690205
Epoch (UTC): 19 December 2014 22:01:03
Eccentricity: 0.0008872
inclination: 67.0576°
perigee height: 785 km
apogee height: 798 km
right ascension of ascending node: 280.6315°
argument of perigee: 277.2526°
revolutions per day: 14.30080894
mean anomaly at epoch: 82.7567°
orbit number at epoch: 69020

The dashed part of the orbit path shows where the satellite is in the earth's shadow,  

DLR